Location: Byszew
(52.1813°N, 19.2693°E)
Time: 11:08:49
(UTC+00:00)

AIST 2D - Pass Details

Date: 29 June 2022
Orbit: 433 x 444 km, 97.0° (Epoch: 07 August)

Event Time Altitude Azimuth Distance (km) Brightness Sun altitude
Rises 20:25:53 0° 13° (NNE) 2,428 ? -8.6°
Reaches altitude 10° 20:27:54 10° 15° (NNE) 1,554 ? -8.8°
Maximum altitude 20:31:14 81° 103° (ESE) 448 ? -9.0°
Drops below altitude 10° 20:34:33 10° 191° (S) 1,544 ? -9.3°
Enters shadow 20:35:07 - 192° (SSW) 1,792 ? -9.3°
